Volver al catálogo

COSMOS 2232

ActivoMilitarHEO
NORAD 22321·PAYLOAD·🇷🇺 Russia

Lanzado Jan 26, 1993 desde Plesetsk Cosmodrome

Loading…

Próximos Pases (próximas 24 horas)

TLE

ActualizadoSource: Space-Track

Época: Sep 7, 2026, 09:02 UTC

1 22321U 93006A   26250.37640642  .00000667  00000-0  00000-0 0  9994
2 22321  67.2310 180.1442 5347167 123.9662 298.7235  2.00452764246045

Sigue COSMOS 2232 en tiempo real con AllMySat

Download on the App Store